When you browse on this site, cookies collect data to enhance your experience and personalize the content and advertising you see.
Visit our Privacy Policy to learn more. By continuing to use the site, you agree to this use of cookies and data.
  • En España
  • Lista de países
  • Para 7 días
  • Temperatura del agua
  • El tiempo en el mapa
  • Informadores
  • user-avatar
    Iniciar sesión

    Tiempo cada hora Kaprun

    Hoy, 7 Junio, Domingo

    Tiempo Temperatura Precipitaciones Viento Presión Humedad
    00:00 +6°C° 0.2 mm 1 mps 592 mmHg 98%
    01:00 +6°C° 0.2 mm 1 mps 592 mmHg 97%
    02:00 +6°C° 0 mm 1 mps 591 mmHg 97%
    03:00 +6°C° 0 mm 1 mps 591 mmHg 97%
    04:00 +6°C° 0 mm 1 mps 591 mmHg 97%
    05:00 +7°C° 0 mm 1 mps 591 mmHg 95%
    06:00 +7°C° 0 mm 1 mps 592 mmHg 93%
    07:00 +7°C° 0 mm 2 mps 592 mmHg 91%
    08:00 +8°C° 0.2 mm 2 mps 593 mmHg 87%
    09:00 +9°C° 0.2 mm 2 mps 593 mmHg 82%
    10:00 +10°C° 0.2 mm 2 mps 594 mmHg 78%
    11:00 +10°C° 0.8 mm 2 mps 594 mmHg 80%
    12:00 +10°C° 0.8 mm 2 mps 594 mmHg 83%
    13:00 +10°C° 0.8 mm 2 mps 594 mmHg 85%
    14:00 +9°C° 1 mm 2 mps 593 mmHg 88%
    15:00 +7°C° 1 mm 2 mps 593 mmHg 90%
    16:00 +6°C° 1 mm 2 mps 592 mmHg 93%
    17:00 +5°C° 1.6 mm 2 mps 592 mmHg 94%
    18:00 +4°C° 1.6 mm 2 mps 592 mmHg 96%
    19:00 +3°C° 1.6 mm 2 mps 592 mmHg 98%
    20:00 +3°C° 0.9 mm 2 mps 592 mmHg 98%
    21:00 +2°C° 0.9 mm 2 mps 592 mmHg 97%
    22:00 +3°C° 0.9 mm 1 mps 592 mmHg 97%
    23:00 +3°C° 0.2 mm 1 mps 592 mmHg 97%

    Mañana, 8 Junio, Lunes

    Tiempo Temperatura Precipitaciones Viento Presión Humedad
    00:00 +3°C° 0.2 mm 1 mps 592 mmHg 97%
    01:00 +2°C° 0.2 mm 0 mps 592 mmHg 97%
    02:00 +2°C° 0.2 mm 0 mps 592 mmHg 97%
    03:00 +3°C° 0.2 mm 1 mps 592 mmHg 98%
    04:00 +3°C° 0.2 mm 1 mps 592 mmHg 98%
    05:00 +3°C° 0.5 mm 1 mps 592 mmHg 98%
    06:00 +3°C° 0.5 mm 1 mps 592 mmHg 98%
    07:00 +3°C° 0.5 mm 1 mps 592 mmHg 98%
    08:00 +4°C° 0.6 mm 1 mps 592 mmHg 98%
    09:00 +4°C° 0.6 mm 1 mps 592 mmHg 97%
    10:00 +4°C° 0.6 mm 1 mps 593 mmHg 97%
    11:00 +4°C° 0.5 mm 1 mps 593 mmHg 97%
    12:00 +5°C° 0.5 mm 1 mps 593 mmHg 97%
    13:00 +5°C° 0.5 mm 1 mps 593 mmHg 97%
    14:00 +5°C° 0.5 mm 1 mps 593 mmHg 97%
    15:00 +5°C° 0.5 mm 1 mps 593 mmHg 97%
    16:00 +5°C° 0.5 mm 1 mps 593 mmHg 96%
    17:00 +5°C° 0.2 mm 1 mps 593 mmHg 97%
    18:00 +5°C° 0.2 mm 1 mps 593 mmHg 97%
    19:00 +4°C° 0.2 mm 0 mps 593 mmHg 97%
    20:00 +4°C° 0.2 mm 0 mps 593 mmHg 97%
    21:00 +4°C° 0.2 mm 0 mps 593 mmHg 98%
    22:00 +3°C° 0.2 mm 0 mps 593 mmHg 98%
    23:00 +3°C° 1.4 mm 0 mps 593 mmHg 98%

    Pasado mañana, 9 Junio, Martes

    Tiempo Temperatura Precipitaciones Viento Presión Humedad
    00:00 +3°C° 1.4 mm 0 mps 593 mmHg 98%
    01:00 +3°C° 1.4 mm 0 mps 593 mmHg 99%
    02:00 +3°C° 0.9 mm 0 mps 593 mmHg 99%
    03:00 +3°C° 0.9 mm 0 mps 593 mmHg 99%
    04:00 +3°C° 0.9 mm 0 mps 592 mmHg 99%
    05:00 +4°C° 0.4 mm 0 mps 593 mmHg 99%
    06:00 +4°C° 0.4 mm 0 mps 593 mmHg 99%
    07:00 +4°C° 0.4 mm 0 mps 593 mmHg 99%
    08:00 +4°C° 1.1 mm 0 mps 593 mmHg 98%
    09:00 +4°C° 1.1 mm 0 mps 594 mmHg 97%
    10:00 +4°C° 1.1 mm 0 mps 594 mmHg 97%
    11:00 +6°C° 0.2 mm 1 mps 594 mmHg 95%
    12:00 +7°C° 0.2 mm 1 mps 594 mmHg 92%
    13:00 +8°C° 0.2 mm 1 mps 595 mmHg 90%
    14:00 +8°C° 0.4 mm 1 mps 595 mmHg 89%
    15:00 +8°C° 0.4 mm 1 mps 595 mmHg 89%
    16:00 +9°C° 0.4 mm 1 mps 595 mmHg 88%
    17:00 +8°C° 0.5 mm 1 mps 595 mmHg 91%
    18:00 +7°C° 0.5 mm 1 mps 594 mmHg 93%
    19:00 +7°C° 0.5 mm 1 mps 594 mmHg 96%
    20:00 +6°C° 0.8 mm 1 mps 594 mmHg 97%
    21:00 +6°C° 0.8 mm 1 mps 594 mmHg 98%
    22:00 +4°C° 0.8 mm 0 mps 594 mmHg 99%
    23:00 +4°C° 0.4 mm 0 mps 594 mmHg 99%

    10 Junio, Miércoles

    Tiempo Temperatura Precipitaciones Viento Presión Humedad
    00:00 +4°C° 0.4 mm 0 mps 594 mmHg 98%
    01:00 +4°C° 0.4 mm 0 mps 594 mmHg 98%
    02:00 +4°C° 0.2 mm 0 mps 594 mmHg 98%
    03:00 +4°C° 0.2 mm 0 mps 593 mmHg 98%
    04:00 +4°C° 0.2 mm 0 mps 593 mmHg 98%
    05:00 +4°C° 0 mm 0 mps 594 mmHg 97%
    06:00 +4°C° 0 mm 0 mps 594 mmHg 95%
    07:00 +5°C° 0 mm 0 mps 594 mmHg 94%
    08:00 +6°C° 0.2 mm 0 mps 594 mmHg 92%
    09:00 +7°C° 0.2 mm 1 mps 594 mmHg 89%
    10:00 +8°C° 0.2 mm 1 mps 595 mmHg 87%
    11:00 +9°C° 0.6 mm 1 mps 595 mmHg 86%
    12:00 +9°C° 0.6 mm 1 mps 595 mmHg 85%
    13:00 +10°C° 0.6 mm 1 mps 595 mmHg 84%
    14:00 +9°C° 1 mm 1 mps 595 mmHg 86%
    15:00 +9°C° 1 mm 1 mps 594 mmHg 88%
    16:00 +9°C° 1 mm 1 mps 594 mmHg 90%
    17:00 +8°C° 1.1 mm 1 mps 594 mmHg 92%
    18:00 +8°C° 1.1 mm 1 mps 593 mmHg 93%
    19:00 +7°C° 1.1 mm 1 mps 593 mmHg 95%
    20:00 +6°C° 1 mm 1 mps 593 mmHg 95%
    21:00 +6°C° 1 mm 1 mps 593 mmHg 95%
    22:00 +5°C° 1 mm 1 mps 593 mmHg 96%
    23:00 +5°C° 0.6 mm 1 mps 593 mmHg 96%

    11 Junio, Jueves

    Tiempo Temperatura Precipitaciones Viento Presión Humedad
    00:00 +5°C° 0.6 mm 1 mps 593 mmHg 96%
    01:00 +5°C° 0.6 mm 1 mps 592 mmHg 96%
    02:00 +5°C° 0.3 mm 1 mps 592 mmHg 96%
    03:00 +4°C° 0.3 mm 0 mps 592 mmHg 96%
    04:00 +4°C° 0.3 mm 0 mps 592 mmHg 96%
    05:00 +4°C° 0.6 mm 0 mps 592 mmHg 96%
    06:00 +4°C° 0.6 mm 0 mps 592 mmHg 96%
    07:00 +4°C° 0.6 mm 0 mps 592 mmHg 96%
    08:00 +5°C° 0.7 mm 0 mps 592 mmHg 95%
    09:00 +5°C° 0.7 mm 0 mps 592 mmHg 94%
    10:00 +5°C° 0.7 mm 0 mps 593 mmHg 93%
    11:00 +6°C° 0.6 mm 0 mps 593 mmHg 92%
    12:00 +6°C° 0.6 mm 0 mps 593 mmHg 91%
    13:00 +8°C° 0.6 mm 1 mps 593 mmHg 89%
    14:00 +9°C° 0.4 mm 1 mps 593 mmHg 85%
    15:00 +10°C° 0.4 mm 1 mps 593 mmHg 80%
    16:00 +11°C° 0.4 mm 1 mps 594 mmHg 76%
    17:00 +10°C° 0.3 mm 1 mps 593 mmHg 80%
    18:00 +9°C° 0.3 mm 1 mps 593 mmHg 84%
    19:00 +9°C° 0.3 mm 1 mps 593 mmHg 89%
    20:00 +7°C° 0 mm 1 mps 593 mmHg 91%
    21:00 +6°C° 0 mm 1 mps 592 mmHg 93%
    22:00 +4°C° 0 mm 1 mps 592 mmHg 95%
    23:00 +3°C° 0 mm 2 mps 592 mmHg 95%

    12 Junio, Viernes

    Tiempo Temperatura Precipitaciones Viento Presión Humedad
    00:00 +3°C° 0 mm 2 mps 591 mmHg 94%
    01:00 +3°C° 0 mm 2 mps 591 mmHg 94%
    02:00 +3°C° 0 mm 2 mps 591 mmHg 94%
    03:00 +3°C° 0 mm 2 mps 591 mmHg 93%
    04:00 +3°C° 0 mm 2 mps 591 mmHg 93%
    05:00 +4°C° 0 mm 2 mps 592 mmHg 89%
    06:00 +6°C° 0 mm 2 mps 592 mmHg 85%
    07:00 +9°C° 0 mm 1 mps 593 mmHg 81%
    08:00 +10°C° 0 mm 2 mps 594 mmHg 72%
    09:00 +12°C° 0 mm 2 mps 595 mmHg 63%
    10:00 +14°C° 0 mm 2 mps 595 mmHg 53%
    11:00 +15°C° 0 mm 2 mps 595 mmHg 51%
    12:00 +16°C° 0 mm 2 mps 595 mmHg 49%
    13:00 +16°C° 0 mm 2 mps 595 mmHg 47%
    14:00 +16°C° 0.1 mm 2 mps 595 mmHg 50%
    15:00 +16°C° 0.1 mm 2 mps 594 mmHg 52%
    16:00 +15°C° 0.1 mm 2 mps 594 mmHg 55%
    17:00 +14°C° 0.3 mm 2 mps 594 mmHg 63%
    18:00 +13°C° 0.3 mm 2 mps 593 mmHg 72%
    19:00 +12°C° 0.3 mm 2 mps 593 mmHg 80%
    20:00 +9°C° 0.2 mm 2 mps 592 mmHg 85%
    21:00 +8°C° 0.2 mm 2 mps 592 mmHg 89%
    22:00 +5°C° 0.2 mm 3 mps 592 mmHg 93%
    23:00 +6°C° 0.1 mm 2 mps 592 mmHg 94%
    Mostrar más